• MPC Preparation (Info)

  • MPEC 2010-U52 : 2010 UF7

    The following Minor Planet Electronic Circular may be linked-to from your own Web pages, but must not otherwise be redistributed electronically.

    A form allowing access to any MPEC is at the bottom of this page.


    Read MPEC 2010-U51 Read MPEC 2010-U53


    M.P.E.C. 2010-U52                                Issued 2010 Oct. 29, 14:04 UT
    
         The Minor Planet Electronic Circulars contain information on unusual
             minor planets and routine data on comets.  They are published
       on behalf of Commission 20 of the International Astronomical Union by the
              Minor Planet Center, Smithsonian Astrophysical Observatory,
                              Cambridge, MA 02138, U.S.A.
    
                 Prepared using the Tamkin Foundation Computer Network
    
                                  MPC@CFA.HARVARD.EDU
           URL https://www.minorplanetcenter.org/iau/mpc.html  ISSN 1523-6714
    
                                       2010 UF7
    
    Observations:
         K10U07F  C2010 10 19.22867 02 03 40.42 +05 25 21.9          20.6 V EU052G96
         K10U07F  C2010 10 19.23519 02 03 39.81 +05 25 20.3          20.5 V EU052G96
         K10U07F  C2010 10 19.24173 02 03 39.20 +05 25 18.4          20.4 V EU052G96
         K10U07F  C2010 10 19.24832 02 03 38.59 +05 25 16.4          21.1 V EU052G96
         K10U07F* C2010 10 28.29036 01 48 42.62 +04 48 58.3          20.2 V EU052G96
         K10U07F  C2010 10 28.29546 01 48 42.04 +04 48 56.7          20.5 V EU052G96
         K10U07F  C2010 10 28.30064 01 48 41.47 +04 48 55.8          20.3 V EU052G96
         K10U07F  C2010 10 28.30665 01 48 40.82 +04 48 54.3          20.5 V EU052G96
         K10U07F KC2010 10 28.96237 01 47 30.69 +04 46 23.4          19.5 R EU052204
         K10U07F KC2010 10 28.98329 01 47 28.35 +04 46 18.3                 EU052204
         K10U07F KC2010 10 28.99097 01 47 27.46 +04 46 16.7          19.7 R EU052473
         K10U07F KC2010 10 28.99236 01 47 27.29 +04 46 16.3          19.7 R EU052473
         K10U07F  C2010 10 29.23514 01 47 01.58 +04 45 23.9          20.2 V EU052G96
         K10U07F  C2010 10 29.23569 01 47 01.52 +04 45 23.9          20.2 V EU052G96
         K10U07F  C2010 10 29.23629 01 47 01.45 +04 45 23.9          20.4 V EU052G96
         K10U07F  C2010 10 29.23687 01 47 01.39 +04 45 23.5          20.6 V EU052G96
         K10U07F KC2010 10 29.23690001 47 01.16 +04 45 22.0          20.2 V EU052H21
         K10U07F KC2010 10 29.24925001 46 59.79 +04 45 19.1          20.3 V EU052H21
         K10U07F KC2010 10 29.25497 01 46 59.22 +04 45 18.8          20.3 R EU052H36
         K10U07F KC2010 10 29.25868 01 46 58.80 +04 45 17.8          20.1 R EU052H36
         K10U07F KC2010 10 29.26763 01 46 57.87 +04 45 15.0          20.5 R EU052H36
    
    Observer details:
    204 Schiaparelli Observatory.  Observer L. Buzzi.  0.60-m f/4.64 reflector
        + CCD.
    473 Remanzacco.  Observers L. Donato, V. Gonano, E. Guido, G. Sostero.  0.45-m
        f/4.4 Newtonian reflector + CCD.
    G96 Mt. Lemmon Survey.  Observers A. Boattini, A. R. Gibbs.  Measurers
        J. D. Ahern, E. C. Beshore, A. Boattini, G. J. Garradd, A. R. Gibbs,
        A. D. Grauer, R. E. Hill, R. A. Kowalski, S. M. Larson, R. H. McNaught.
        1.5-m reflector + CCD.
    H21 Astronomical Research Observatory, Westfield.  Observer R. Holmes.
        Measurers S. Foglia, T. Vorobjov.  0.61-m f/4.0 astrograph + CCD.
    H36 Sandlot Observatory, Scranton.  Observer G. Hug.  0.56-m reflector + CCD.
    
    Orbital elements:
    2010 UF7                                                 Earth MOID = 0.1183 AU
    Epoch 2010 July 23.0 TT = JDT 2455400.5                 MPC
    M 291.74485              (2000.0)            P               Q
    n   0.30105441     Peri.   86.85982     -0.72070257     -0.68467032
    a   2.2048179      Node    49.89706     +0.56613318     -0.67176776
    e   0.5677443      Incl.    8.16963     +0.40010127     -0.28276252
    P   3.27           H   19.2           G   0.15           U   8
    Residuals in seconds of arc
    101019 G96  0.0   0.3+    101028 G96  0.3+  0.1-    101029 G96  0.1-  0.3+
    101019 G96  0.0   0.3+    101028 204  0.2-  0.3+    101029 G96  0.1-  0.0
    101019 G96  0.0   0.1-    101028 204  0.5-  0.1-    101029 H21  0.2+  0.3-
    101019 G96  0.1+  0.5-    101028 473  0.5-  0.1+    101029 H21  0.3+  0.4-
    101028 G96  0.3+  0.2+    101028 473  0.8-  0.0     101029 H36  0.2+  0.4+
    101028 G96  0.0   0.2-    101029 G96  0.1-  0.0     101029 H36  0.1+  0.2+
    101028 G96  0.1+  0.0     101029 G96  0.1-  0.1+    101029 H36  1.1+  0.5-
    
    Ephemeris:
    2010 UF7                 a,e,i = 2.20, 0.57, 8                   q = 0.9530
    Date    TT    R. A. (2000) Decl.     Delta      r     Elong.  Phase     V
    2010 10 21    02 00.95   +05 18.2    0.828    1.821   172.9     3.9    20.5
    2010 10 31    01 43.83   +04 39.0    0.762    1.744   167.1     7.3    20.3
    2010 11 10    01 25.30   +04 10.9    0.720    1.666   153.6    15.3    20.4
    2010 11 20    01 08.11   +04 05.5    0.699    1.587   139.8    23.7    20.5
    2010 11 30    00 54.66   +04 30.5    0.693    1.507   126.8    31.6    20.6
    2010 12 10    00 46.42   +05 29.4    0.696    1.427   115.2    38.6    20.7
    2010 12 20    00 43.87   +07 02.4    0.702    1.348   105.0    44.8    20.8
    2010 12 30    00 46.76   +09 07.3    0.705    1.271    96.3    50.3    20.8
    2011 01 09    00 54.70   +11 42.6    0.701    1.197    88.9    55.2    20.8
    2011 01 19    01 07.32   +14 46.5    0.688    1.128    82.8    59.9    20.8
    2011 01 29    01 24.39   +18 17.4    0.665    1.067    77.9    64.6    20.7
    2011 02 08    01 46.12   +22 13.5    0.631    1.016    74.2    69.1    20.7
    2011 02 18    02 13.22   +26 32.0    0.588    0.978    71.7    73.5    20.6
    
    Sonia Keys                   (C) Copyright 2010 MPC           M.P.E.C. 2010-U52
    

    Read MPEC 2010-U51 Read MPEC 2010-U53


    MPEC number:

    Enter an MPEC number in one of the following forms:

    • 1997-B01 (the full form)
    • J97B01 (the packed version of the full form)
    • B01 (the abbreviated form)